www.pogodaiklimat.ru

Погода и климат >> Архив погоды >> Саудовская Аравия >> Al-Wajh


ПОГОДА в Al-Wajh

  • Прогноз погоды в Al-Wajh
  • Монитор погоды в Al-Wajh
  • Климат города

АРХИВ ПОГОДЫ в Al-Wajh

Время (UTC), дата Ветер
(напр.,м/с)
 
Видим.   Явления Облачность Т
(С)
Тd
(С)
f
(%)
Тe
(С)
Тes
(С)
Комфортность P
(гПа)
Po
(гПа)
Тmin
(С)
Tmax
(С)
R
(мм)
R24
(мм)
S
(см)
00 7.12 СВ 3 10 км 3/3 900 м
[Sc]
+18.6 +11.0 61 +19 +19 1013.6 1010.8
03 7.12 В 2 10 км 3/3 900 м
[Sc]
+18.4 +12.0 66 +19 +19 1013.9 1011.1
06 7.12 ЮВ 3 10 км 6/6 900 м
[Sc]
+19.2 +14.0 72 +21 +22 комфорт 1015.3 1012.5 +17.4
09 7.12 СЗ 3 10 км 5/5 900 м
[Sc]
+24.6 +13.0 48 +27 +30 жарко 1015.2 1012.4
12 7.12 З 4 10 км 4/4 900 м
[Sc]
+25.2 +12.0 44 +27 +29 жарко 1013.9 1011.1
15 7.12 СЗ 6 10 км 3/3 900 м
[Sc]
+22.2 +13.0 56 +25 +25 комфорт 1014.4 1011.6
18 7.12 С 2 10 км 3/3 900 м
[Sc]
+19.6 +11.0 58 +21 +21 комфорт 1015.3 1012.5 +25.6
21 7.12 С 2 10 км 3/3 900 м
[Sc]
+18.4 +10.0 58 +19 +19 1015.6 1012.8
00 8.12 С 2 10 км 3/3 900 м
[Sc]
+18.6 +9.0 54 +20 +20 1015.1 1012.3
03 8.12 С 2 10 км 3/3 900 м
[Sc]
+18.2 +10.0 59 +19 +19 1015.1 1012.3
06 8.12 штиль 0 10 км 6/6 900 м
[Sc]
+20.2 +9.0 48 +21 +22 комфорт 1016.3 1013.5 +17.8
09 8.12 З 3 10 км 5/5 900 м
[Sc]
+24.0 +12.0 47 +26 +29 жарко 1016.5 1013.7
12 8.12 З 6 10 км 6/6 900 м
[Sc]
+24.6 +15.0 55 +27 +28 жарко 1015.3 1012.5
15 8.12 СЗ 5 10 км 5/5 900 м
[Sc]
+22.6 +14.0 58 +26 +26 жарко 1016.1 1013.3
18 8.12 СЗ 2 10 км 4/4 900 м
[Sc]
+21.0 +14.0 64 +24 +24 комфорт 1017.3 1014.5 +25.4
21 8.12 С 3 10 км 3/3 900 м
[Sc]
+19.0 +13.0 68 +20 +20 1016.9 1014.1
00 9.12 СВ 2 10 км 3/3 900 м
[Sc]
+18.2 +14.0 76 +19 +19 1016.1 1013.3
03 9.12 штиль 0 10 км 3/3 900 м
[Sc]
+17.2 +12.0 71 +17 +17 1016.1 1013.3
06 9.12 СВ 2 10 км 6/4 1200 м
[Sc Ci sp]
+19.0 +12.0 64 +21 +22 комфорт 1017.4 1014.6 +16.8
09 9.12 СЗ 3 10 км 6/4 1200 м
[Sc Ci sp]
+23.0 +13.0 53 +26 +31 жарко 1017.3 1014.5
12 9.12 СЗ 5 10 км 5/3 900 м
[Cu med, cong Ac trans]
+25.0 +14.0 50 +27 +29 жарко 1015.5 1012.7
15 9.12 СЗ 4 10 км 3/0
[Ci fib]
+23.5 +16.0 63 +27 +27 душно 1015.2 1012.4
18 9.12 СЗ 2 10 км ясно +21.6 +15.0 66 +25 +25 комфорт 1016.0 1013.2 +26.0
21 9.12 С 2 10 км ясно +19.2 +14.0 72 +21 +21 комфорт 1016.6 1013.8
00 10.12 С 2 10 км ясно +18.0 +13.0 73 +19 +19 1016.2 1013.4
03 10.12 СВ 3 10 км ясно +17.2 +13.0 76 +17 +17 1016.2 1013.4
06 10.12 СВ 2 10 км 3/3 1200 м
[Sc]
+20.4 +13.0 62 +23 +25 комфорт 1017.3 1014.5 +17.2
09 10.12 З 4 10 км 3/3 900 м
[Sc]
+24.9 +16.0 58 +28 +33 жарко 1017.1 1014.3
12 10.12 З 5 10 км 3/3 900 м
[Cu med, cong]
+25.0 +17.0 61 +29 +31 душно 1015.7 1012.9
15 10.12 СЗ 5 10 км 1/1 900 м
[Cu med, cong]
+24.2 +17.0 64 +28 +28 душно 1016.4 1013.6
18 10.12 СЗ 5 10 км ясно +23.2 +17.0 68 +28 +28 душно 1017.8 1015.0 +25.8
21 10.12 С 2 10 км ясно +19.4 +12.0 62 +21 +21 комфорт 1018.0 1015.2
00 11.12 СВ 3 10 км ясно +18.2 +11.0 63 +19 +19 1017.5 1014.7
03 11.12 СВ 2 10 км ясно +17.0 +10.0 63 +18 +18 1017.4 1014.6
06 11.12 СВ 2 10 км ясно +19.7 +12.0 61 +22 +24 комфорт 1018.7 1015.9 +17.0
09 11.12 СЗ 5 10 км ясно +25.5 +13.0 46 +27 +32 жарко 1018.5 1015.7
12 11.12 СЗ 7 10 км ясно +25.8 +14.0 48 +28 +29 жарко 1017.1 1014.3
15 11.12 СЗ 7 10 км ясно +23.5 +14.0 55 +26 +26 жарко 1017.8 1015.0
18 11.12 С 4 10 км ясно +22.0 +14.0 60 +25 +25 комфорт 1018.5 1015.7 +26.0
21 11.12 С 3 10 км ясно +20.2 +14.0 68 +23 +23 комфорт 1018.6 1015.8
00 12.12 С 3 10 км ясно +18.8 +13.0 69 +20 +20 1017.9 1015.1
03 12.12 С 3 10 км ясно +17.5 +12.0 70 +18 +18 1017.7 1014.9 0.0 0.0
06 12.12 С 3 10 км ясно +19.4 +12.0 62 +21 +23 комфорт 1019.0 1016.2 +16.6
09 12.12 СЗ 6 10 км ясно +24.6 +16.0 59 +28 +31 душно 1018.6 1015.8
12 12.12 СЗ 7 10 км ясно +26.4 +16.0 53 +30 +31 душно 1016.9 1014.1
15 12.12 СЗ 6 10 км ясно +24.0 +16.0 61 +27 +27 жарко 1017.5 1014.7
18 12.12 СЗ 7 10 км ясно +22.6 +15.0 62 +26 +26 жарко 1018.6 1015.8 +26.8
21 12.12 С 2 10 км ясно +19.4 +14.0 71 +22 +22 комфорт 1018.9 1016.1
00 13.12 С 2 10 км ясно +18.4 +12.0 66 +19 +19 1018.3 1015.5
03 13.12 С 3 10 км ясно +17.0 +11.0 68 +17 +17 1018.4 1015.6
06 13.12 СВ 2 10 км ясно +18.4 +11.0 62 +20 +22 1019.7 1016.9 +15.8
09 13.12 З 3 10 км ясно +25.2 +11.0 41 +26 +35 жарко 1019.8 1017.0
12 13.12 З 5 10 км ясно +26.2 +11.0 39 +27 +30 жарко 1017.7 1014.9
15 13.12 СЗ 6 10 км ясно +24.2 +12.0 46 +26 +26 жарко 1018.1 1015.3
18 13.12 С 3 10 км ясно +21.6 +13.0 58 +24 +24 комфорт 1019.2 1016.4 +27.0
21 13.12 С 2 10 км ясно +20.6 +12.0 58 +23 +23 комфорт 1019.6 1016.8

 

Местоположение метеостанции Al-Wajh (Саудовская Аравия): широта 26.20 долгота 36.48 высота над уровнем моря 24 м.

В архиве по умолчанию представлена погода в Al-Wajh за последнюю неделю. Архивные данные за месяц целиком и за предыдущие месяцы, начиная с января 2011 года, Вы можете получить, выбрав интересующий диапазон дат из раскрывающегося списка и нажав кнопку "Ввод!".


*Определитесь, кто Вы:
робот инопланетянин человек

Внимание! Время в таблицах - всемирное. Для получения местного времени необходимо прибавить поправку, которая в Al-Wajh равна 3 ч.

Смотрите также архив погоды в соседних городах и на ближайших метеорологических станциях:

Погода в Al-Ula (Саудовская Аравия) (166 км)
Погода в Kosseir (Египет) (233 км)
Погода в Tabuk (Саудовская Аравия) (243 км)
Погода в Yanbu (Саудовская Аравия) (280 км)
Погода в Hurghada (Египет) (294 км)
Погода в Shalatin (Египет) (353 км)
Погода в El Tor (Египет) (362 км)
Погода в Madinah (Саудовская Аравия) (372 км)
Погода в South Of Valley University (Египет) (372 км)
Погода в Luxor (Египет) (383 км)

Пояснения к столбцам:

Ветер - указаны скорость ветра в м/с - средняя за 10 мин, порывы в срок и между сроками (в фигурных скобках) и направление, откуда дует ветер: С - северный, СВ - северо-восточный, В - восточный, ЮВ - юго-восточный, Ю - южный, ЮЗ - юго-западный, З - западный, СЗ - северо-западный.
Видимость - горизонтальная дальность видимости в метрах или километрах. При видимости от 1 до 10 км при отсутствии осадков обычно наблюдается дымка, при ухудшении видимости до 1 км и менее - туман. В сухую погоду видимость может ухудшаться дымом, пылью или мглою.
Явления - указаны атмосферные явления, наблюдавшиеся в срок или в последний час перед сроком; фигурными скобками обозначены явления, наблюдавшиеся между сроками (за 1-3 часа до срока); квадратными скобками обозначены град или гололедные отложения с указанием их диаметра в мм.
Облачность - указаны через наклонную черту общая и нижняя облачность в баллах и высота нижней границы облаков в метрах; квадратными скобками обозначены формы облаков: Ci - перистые, Cs - перисто-слоистые, Cc - перисто-кучевые, Ac - высококучевые, As - высокослоистые, Sc - слоисто-кучевые, Ns - слоисто-дождевые, Cu - кучевые, Cb - кучево-дождевые. Подробнее классификацию облаков см. в Атласе облаков (PDF).
T - Температура воздуха - температура, измеренная на высоте 2 м над землей.
Td - Температура точки росы - температура, при понижении до которой содержащийся в воздухе водяной пар достигнет насыщения.
f - Относительная влажность воздуха - влажноcть воздуха, измеренная на высоте 2 м над землей.
Te - Эффективная температура - температура, которую ощущает одетый по сезону человек в тени. Характеристика душности погоды. При расчете учитывается влияние влажности воздуха и скорости ветра на теплоощущения человека.
Tes - Эффективная температура на солнце - температура, которую ощущает человек, с поправкой на солнечный нагрев. Характеристика знойности погоды. Зависит от высоты солнца над горизонтом, облачности и скорости ветра. Ночью, в пасмурную погоду, а также при ветре 12 м/с и более поправка равна нулю.
P - Атмосферное давление - приведенное к уровню моря атмосферное давление.
Po - Атмосферное давление - измеренное на уровне метеостанции атмосферное давление.
Tmin - Минимальная температура - минимум температуры воздуха на высоте 2 м над землей.
Tmax - Максимальная температура - максимум температуры воздуха на высоте 2 м над землей.
R - Количество осадков - Количество выпавших осадков за период времени, мм. При наведении курсора мыши на число - период времени, за который выпало указанное количество осадков.
R24 - Количество осадков - Количество выпавших осадков за 24 часа, мм.
S - Снежный покров - Высота снежного покрова, см. При наведении курсора мыши на число - состояние снежного покрова и степень покрытия местности в баллах.